Tracking 19562 objects as of 25-Mar-2019
HD Live streaming from Space Station
objects crossing your sky now

GARUDA 1

Track GARUDA 1 now!
GARUDA 1 is classified as:


NORAD ID: 26089
Int'l Code: 2000-011A
Perigee: 35,869.8 km
Apogee: 35,919.9 km
Inclination: 3.2 °
Period: 1,441.3 minutes
Semi major axis: 42265 km
RCS: 16.0243 m2 (large)
Launch date: February 12, 2000
Source: Indonesia (INDO)
Launch site: TYURATAM MISSILE AND SPACE COMPLEX (TTMTR)

L-band; mobile telephone communications.
aabbcc
Your satellite tracking list
Your tracking list is empty




NASA's NSSDC Master Catalog

Two Line Element Set (TLE):
1 26089U 00011A   19083.79146414 -.00000293  00000-0  00000+0 0  9998
2 26089   3.2049  98.8694 0005935 242.5429  69.2530  0.99912235 69931
Source of the keplerian elements: AFSPC